Weather History for Destin, FL

Change the Weather History Date:

Saturday, June 15, 2013

  Actual Average Record
Temperature  
Mean Temperature 83 °F -  
Max Temperature 89 °F 85 °F 102 °F (1997)
Min Temperature 78 °F 72 °F 73 °F (1999)
Cooling Degree Days 18    
Growing Degree Days 33 (Base 50)    
Moisture  
Dew Point 73 °F    
Average Humidity 71    
Maximum Humidity 82    
Minimum Humidity 62    
Precipitation  
Precipitation 0.00 in - - ()
Sea Level Pressure  
Sea Level Pressure 29.99 in    
Wind  
Wind Speed 8 mph (ESE)    
Max Wind Speed 12 mph    
Max Gust Speed -    
Visibility 10 miles    
Events      
Averages and records for this station are not official NWS values.
T = Trace of Precipitation, MM = Missing Value Source: NWS Daily Summary

Daily Weather History Graph

Daily Weather History Graph

Search for Another Location

Airport:

Trip Planner

Search our weather history database for the weather conditions in past years. The results will help you decide how hot, cold, wet, or windy it might be!

Date:

Astronomy

Jun. 15, 2013 Rise Set
Actual Time 5:43 AM CDT 7:49 PM CDT
Civil Twilight 5:15 AM CDT 8:17 PM CDT
Nautical Twilight 4:42 AM CDT 8:50 PM CDT
Astronomical Twilight 4:06 AM CDT 9:26 PM CDT
Moon 11:53 AM CDT (6/15) No Moon Set
Length of Visible Light 15h 01m
Length of Day
14h 06m
Waxing Crescent, 40% of the Moon is Illuminated
Jun 15
Waxing Crescent
Jun 16
First Quarter
Jun 23
Full
Jun 29
Last Quarter
Jul 8
New

Hourly Weather History & Observations

Time (CDT) Temp. Heat Index Dew Point Humidity Pressure Visibility Wind Dir Wind Speed Gust Speed Precip Events Conditions
12:53 AM 82.0 °F 84.9 °F 68.0 °F 62% 29.93 in 10.0 mi NE 4.6 mph - N/A   Clear
1:53 AM 81.0 °F 83.8 °F 68.0 °F 65% 29.92 in 7.0 mi NNE 4.6 mph - N/A   Clear
2:53 AM 80.1 °F 82.7 °F 68.0 °F 67% 29.93 in 5.0 mi North 5.8 mph - N/A   Haze
3:53 AM 79.0 °F - 68.0 °F 69% 29.93 in 10.0 mi NE 6.9 mph - N/A   Clear
4:53 AM 79.0 °F - 68.0 °F 69% 29.94 in 10.0 mi NE 5.8 mph - N/A   Scattered Clouds
5:53 AM 78.1 °F - 69.1 °F 74% 29.96 in 10.0 mi ENE 5.8 mph - N/A   Partly Cloudy
6:53 AM 79.0 °F - 71.1 °F 77% 29.98 in 10.0 mi East 5.8 mph - N/A   Clear
7:53 AM 80.1 °F 83.8 °F 72.0 °F 76% 30.00 in 10.0 mi East 10.4 mph - N/A   Scattered Clouds
8:53 AM 82.9 °F 88.0 °F 72.0 °F 69% 30.01 in 10.0 mi SE 11.5 mph - N/A   Clear
9:53 AM 84.0 °F 90.2 °F 73.0 °F 69% 30.03 in 10.0 mi SE 11.5 mph - N/A   Partly Cloudy
10:53 AM 84.9 °F 92.1 °F 73.9 °F 69% 30.03 in 10.0 mi SE 9.2 mph - N/A   Clear
11:53 AM 86.0 °F 95.1 °F 75.0 °F 70% 30.02 in 10.0 mi SE 9.2 mph - N/A   Clear
12:53 PM 87.1 °F 96.3 °F 75.0 °F 67% 30.02 in 10.0 mi SSE 9.2 mph - N/A   Clear
1:53 PM 88.0 °F 97.5 °F 75.0 °F 65% 30.01 in 10.0 mi South 11.5 mph - N/A   Clear
2:53 PM 88.0 °F 100.2 °F 77.0 °F 70% 30.00 in 10.0 mi SSE 10.4 mph - N/A   Clear
3:53 PM 88.0 °F 100.2 °F 77.0 °F 70% 29.99 in 10.0 mi SSE 8.1 mph - N/A   Clear
4:53 PM 86.0 °F 95.1 °F 75.0 °F 70% 29.99 in 10.0 mi SSE 10.4 mph - N/A   Mostly Cloudy
5:53 PM 84.9 °F 93.3 °F 75.0 °F 72% 29.98 in 10.0 mi SSE 11.5 mph - N/A   Overcast
6:53 PM 84.9 °F 93.3 °F 75.0 °F 72% 29.99 in 10.0 mi SSE 11.5 mph - N/A   Mostly Cloudy
7:53 PM 84.0 °F 91.9 °F 75.0 °F 74% 29.99 in 10.0 mi SSE 10.4 mph - N/A   Mostly Cloudy
8:53 PM 82.9 °F 90.2 °F 75.0 °F 77% 30.01 in 10.0 mi SSE 9.2 mph - N/A   Clear
9:53 PM 82.9 °F 90.2 °F 75.0 °F 77% 30.03 in 10.0 mi SE 11.5 mph - N/A   Clear
10:53 PM 82.0 °F 89.4 °F 75.9 °F 82% 30.03 in 10.0 mi SE 10.4 mph - N/A   Partly Cloudy
11:53 PM 82.0 °F 89.4 °F 75.9 °F 82% 30.04 in 10.0 mi SE 6.9 mph - N/A   Scattered Clouds